• In Uzbekistan
  • List of Countries
  • For 7 days
  • Water Temperature
  • Satellite Maps
  • Weather Map
  • Weather Widgets
  • user-avatar
    Login

    Hourly Weather Salta

    Today, 27 April, Thursday

    Time Temperature Precipitation Wind Pressure Humidity
    00:00 +9°C° 0 mm 1 mps 652 mmHg 83%
    01:00 +9°C° 0 mm 1 mps 652 mmHg 84%
    02:00 +9°C° 0 mm 1 mps 652 mmHg 86%
    03:00 +9°C° 0 mm 1 mps 652 mmHg 86%
    04:00 +9°C° 0 mm 1 mps 652 mmHg 86%
    05:00 +8°C° 0 mm 1 mps 651 mmHg 86%
    06:00 +10°C° 0 mm 1 mps 652 mmHg 80%
    07:00 +11°C° 0 mm 1 mps 653 mmHg 74%
    08:00 +13°C° 0 mm 1 mps 653 mmHg 68%
    09:00 +15°C° 0 mm 2 mps 654 mmHg 60%
    10:00 +17°C° 0 mm 2 mps 654 mmHg 52%
    11:00 +18°C° 0 mm 3 mps 654 mmHg 43%
    12:00 +19°C° 0 mm 3 mps 654 mmHg 41%
    13:00 +20°C° 0 mm 3 mps 653 mmHg 39%
    14:00 +21°C° 0 mm 4 mps 653 mmHg 37%
    15:00 +20°C° 0 mm 4 mps 652 mmHg 41%
    16:00 +19°C° 0 mm 3 mps 652 mmHg 44%
    17:00 +18°C° 0 mm 3 mps 651 mmHg 48%
    18:00 +16°C° 0 mm 3 mps 651 mmHg 58%
    19:00 +13°C° 0 mm 2 mps 651 mmHg 68%
    20:00 +11°C° 0 mm 1 mps 651 mmHg 78%
    21:00 +11°C° 0 mm 1 mps 651 mmHg 79%
    22:00 +10°C° 0 mm 1 mps 651 mmHg 80%
    23:00 +10°C° 0 mm 1 mps 651 mmHg 81%

    Tomorrow, 28 April, Friday

    Time Temperature Precipitation Wind Pressure Humidity
    00:00 +9°C° 0 mm 1 mps 651 mmHg 80%
    01:00 +9°C° 0 mm 1 mps 650 mmHg 79%
    02:00 +9°C° 0 mm 1 mps 650 mmHg 78%
    03:00 +9°C° 0 mm 1 mps 650 mmHg 76%
    04:00 +9°C° 0 mm 1 mps 650 mmHg 74%
    05:00 +8°C° 0 mm 1 mps 650 mmHg 71%
    06:00 +10°C° 0 mm 1 mps 651 mmHg 65%
    07:00 +12°C° 0 mm 1 mps 653 mmHg 60%
    08:00 +14°C° 0 mm 1 mps 654 mmHg 54%
    09:00 +16°C° 0 mm 1 mps 654 mmHg 46%
    10:00 +18°C° 0 mm 2 mps 655 mmHg 39%
    11:00 +20°C° 0 mm 3 mps 656 mmHg 32%
    12:00 +21°C° 0 mm 3 mps 655 mmHg 32%
    13:00 +22°C° 0 mm 3 mps 655 mmHg 31%
    14:00 +24°C° 0 mm 3 mps 654 mmHg 31%
    15:00 +22°C° 0 mm 3 mps 654 mmHg 35%
    16:00 +21°C° 0 mm 3 mps 654 mmHg 39%
    17:00 +20°C° 0 mm 2 mps 653 mmHg 43%
    18:00 +17°C° 0 mm 2 mps 653 mmHg 53%
    19:00 +14°C° 0 mm 2 mps 653 mmHg 64%
    20:00 +12°C° 0 mm 1 mps 653 mmHg 75%
    21:00 +11°C° 0 mm 1 mps 653 mmHg 76%
    22:00 +11°C° 0 mm 1 mps 653 mmHg 77%
    23:00 +10°C° 0 mm 1 mps 653 mmHg 79%

    Day after tomorrow, 29 April, Saturday

    Time Temperature Precipitation Wind Pressure Humidity
    00:00 +10°C° 0 mm 1 mps 653 mmHg 79%
    01:00 +9°C° 0 mm 1 mps 652 mmHg 79%
    02:00 +9°C° 0 mm 1 mps 652 mmHg 79%
    03:00 +9°C° 0 mm 1 mps 652 mmHg 78%
    04:00 +9°C° 0 mm 1 mps 651 mmHg 77%
    05:00 +9°C° 0 mm 1 mps 651 mmHg 77%
    06:00 +11°C° 0 mm 1 mps 652 mmHg 70%
    07:00 +13°C° 0 mm 1 mps 653 mmHg 63%
    08:00 +15°C° 0 mm 1 mps 654 mmHg 56%
    09:00 +18°C° 0 mm 1 mps 655 mmHg 49%
    10:00 +19°C° 0 mm 2 mps 655 mmHg 41%
    11:00 +21°C° 0 mm 2 mps 656 mmHg 34%
    12:00 +21°C° 0 mm 3 mps 655 mmHg 34%
    13:00 +22°C° 0 mm 3 mps 655 mmHg 34%
    14:00 +24°C° 0 mm 3 mps 654 mmHg 34%
    15:00 +22°C° 0 mm 3 mps 654 mmHg 39%
    16:00 +21°C° 0 mm 3 mps 653 mmHg 43%
    17:00 +20°C° 0 mm 3 mps 653 mmHg 48%
    18:00 +17°C° 0 mm 2 mps 653 mmHg 58%
    19:00 +15°C° 0 mm 2 mps 653 mmHg 69%
    20:00 +12°C° 0 mm 1 mps 653 mmHg 79%
    21:00 +12°C° 0 mm 1 mps 653 mmHg 80%
    22:00 +11°C° 0 mm 1 mps 653 mmHg 82%
    23:00 +11°C° 0 mm 1 mps 653 mmHg 83%

    30 April, Sunday

    Time Temperature Precipitation Wind Pressure Humidity
    00:00 +10°C° 0 mm 1 mps 652 mmHg 83%
    01:00 +10°C° 0 mm 1 mps 652 mmHg 83%
    02:00 +10°C° 0 mm 1 mps 652 mmHg 83%
    03:00 +10°C° 0 mm 1 mps 651 mmHg 82%
    04:00 +9°C° 0 mm 1 mps 651 mmHg 81%
    05:00 +9°C° 0 mm 1 mps 651 mmHg 81%
    06:00 +11°C° 0 mm 1 mps 652 mmHg 74%
    07:00 +13°C° 0 mm 1 mps 653 mmHg 67%
    08:00 +15°C° 0 mm 1 mps 654 mmHg 60%
    09:00 +18°C° 0 mm 1 mps 655 mmHg 53%
    10:00 +19°C° 0 mm 2 mps 655 mmHg 45%
    11:00 +21°C° 0 mm 2 mps 655 mmHg 38%
    12:00 +23°C° 0 mm 2 mps 655 mmHg 38%
    13:00 +22°C° 0 mm 3 mps 654 mmHg 38%
    14:00 +24°C° 0 mm 3 mps 653 mmHg 37%
    15:00 +22°C° 0 mm 3 mps 653 mmHg 42%
    16:00 +21°C° 0 mm 3 mps 653 mmHg 46%
    17:00 +21°C° 0 mm 3 mps 653 mmHg 51%
    18:00 +18°C° 0 mm 2 mps 653 mmHg 61%
    19:00 +15°C° 0 mm 2 mps 653 mmHg 72%
    20:00 +13°C° 0 mm 1 mps 652 mmHg 82%
    21:00 +12°C° 0 mm 1 mps 652 mmHg 83%
    22:00 +12°C° 0 mm 1 mps 652 mmHg 83%
    23:00 +11°C° 0 mm 1 mps 652 mmHg 83%

    1 May, Monday

    Time Temperature Precipitation Wind Pressure Humidity
    00:00 +11°C° 0 mm 1 mps 652 mmHg 82%
    01:00 +11°C° 0 mm 1 mps 651 mmHg 81%
    02:00 +10°C° 0 mm 1 mps 651 mmHg 80%
    03:00 +10°C° 0 mm 1 mps 651 mmHg 79%
    04:00 +10°C° 0 mm 1 mps 651 mmHg 78%
    05:00 +10°C° 0 mm 1 mps 651 mmHg 77%
    06:00 +12°C° 0 mm 1 mps 652 mmHg 72%
    07:00 +14°C° 0 mm 1 mps 653 mmHg 67%
    08:00 +15°C° 0 mm 1 mps 654 mmHg 61%
    09:00 +19°C° 0 mm 1 mps 654 mmHg 54%
    10:00 +20°C° 0 mm 2 mps 655 mmHg 46%
    11:00 +23°C° 0 mm 2 mps 655 mmHg 38%
    12:00 +24°C° 0 mm 2 mps 654 mmHg 37%
    13:00 +24°C° 0 mm 3 mps 654 mmHg 36%
    14:00 +25°C° 0 mm 3 mps 653 mmHg 35%
    15:00 +24°C° 0 mm 3 mps 653 mmHg 40%
    16:00 +24°C° 0 mm 3 mps 652 mmHg 44%
    17:00 +23°C° 0 mm 2 mps 652 mmHg 49%
    18:00 +19°C° 0 mm 2 mps 652 mmHg 60%
    19:00 +17°C° 0 mm 2 mps 652 mmHg 71%
    20:00 +14°C° 0 mm 1 mps 652 mmHg 82%
    21:00 +13°C° 0 mm 1 mps 652 mmHg 82%
    22:00 +13°C° 0 mm 1 mps 651 mmHg 82%
    23:00 +12°C° 0 mm 1 mps 651 mmHg 83%

    2 May, Tuesday

    Time Temperature Precipitation Wind Pressure Humidity
    00:00 +12°C° 0 mm 1 mps 651 mmHg 83%
    01:00 +12°C° 0 mm 1 mps 650 mmHg 82%
    02:00 +11°C° 0 mm 1 mps 650 mmHg 82%
    03:00 +11°C° 0 mm 1 mps 650 mmHg 81%
    04:00 +11°C° 0 mm 1 mps 650 mmHg 81%
    05:00 +11°C° 0 mm 1 mps 650 mmHg 80%
    06:00 +13°C° 0 mm 1 mps 651 mmHg 75%
    07:00 +14°C° 0 mm 1 mps 652 mmHg 70%
    08:00 +16°C° 0 mm 1 mps 652 mmHg 66%
    09:00 +19°C° 0 mm 1 mps 653 mmHg 60%
    10:00 +20°C° 0 mm 2 mps 653 mmHg 54%
    11:00 +23°C° 0 mm 2 mps 653 mmHg 47%
    12:00 +22°C° 0 mm 3 mps 652 mmHg 46%
    13:00 +24°C° 0 mm 3 mps 652 mmHg 45%
    14:00 +25°C° 0 mm 3 mps 651 mmHg 44%
    15:00 +24°C° 0 mm 3 mps 651 mmHg 49%
    16:00 +22°C° 0 mm 3 mps 651 mmHg 54%
    17:00 +22°C° 0 mm 3 mps 650 mmHg 60%
    18:00 +20°C° 0 mm 2 mps 651 mmHg 69%
    19:00 +17°C° 0 mm 2 mps 651 mmHg 79%
    20:00 +15°C° 0 mm 1 mps 651 mmHg 88%
    21:00 +15°C° 0 mm 1 mps 651 mmHg 89%
    22:00 +15°C° 0 mm 1 mps 651 mmHg 90%
    23:00 +14°C° 0 mm 1 mps 651 mmHg 91%
    Show more